| time (UTC) | temp F | wind direction | speed knots | gust knots | rain 1hr in | rain 24hr in | rain mn in | humidity % | barometer mb |
| 20260506174529 | 65 | 239 | 1.7 | 5.2 | 0.00 | 0.00 | 0.00 | 33 | 1020.8 |
| 20260506173026 | 65 | 344 | 2.6 | 5.2 | 0.00 | 0.00 | 0.00 | 35 | 1020.8 |
| 20260506171536 | 64 | 255 | 0.9 | 6.1 | 0.00 | 0.00 | 0.00 | 37 | 1020.7 |
| 20260506170023 | 63 | 327 | 2.6 | 6.1 | 0.00 | 0.00 | 0.00 | 38 | 1020.9 |
| 20260506164521 | 62 | 346 | 1.7 | 5.2 | 0.00 | 0.00 | 0.00 | 40 | 1020.9 |
| 20260506163018 | 61 | 251 | 3.5 | 6.1 | 0.00 | 0.00 | 0.00 | 42 | 1020.9 |
| 20260506161514 | 60 | 329 | 1.7 | 5.2 | 0.00 | 0.00 | 0.00 | 44 | 1021.0 |
| 20260506160012 | 59 | 340 | 2.6 | 5.2 | 0.00 | 0.00 | 0.00 | 46 | 1021.1 |
| 20260506154507 | 57 | 340 | 2.6 | 5.2 | 0.00 | 0.00 | 0.00 | 48 | 1021.2 |
| 20260506153004 | 56 | 348 | 1.7 | 5.2 | 0.00 | 0.00 | 0.00 | 53 | 1021.1 |
| 20260506151610 | 55 | 241 | 1.7 | 3.5 | 0.00 | 0.00 | 0.00 | 55 | 1021.1 |
| 20260506150106 | 54 | 271 | 0.9 | 5.2 | 0.00 | 0.00 | 0.00 | 56 | 1021.2 |
| 20260506144602 | 53 | 271 | 1.7 | 5.2 | 0.00 | 0.00 | 0.00 | 57 | 1021.1 |
| 20260506143056 | 52 | 320 | 0.0 | 0.0 | 0.00 | 0.00 | 0.00 | 57 | 1021.1 |
| 20260506141551 | 51 | 320 | 0.0 | 0.0 | 0.00 | 0.00 | 0.00 | 57 | 1021.0 |
| 20260506140059 | 50 | 320 | 0.0 | 0.0 | 0.00 | 0.00 | 0.00 | 56 | 1020.7 |
| 20260506134546 | 49 | 320 | 0.0 | 0.0 | 0.00 | 0.00 | 0.00 | 55 | 1020.5 |
| 20260506133047 | 49 | 320 | 0.0 | 0.0 | 0.00 | 0.00 | 0.00 | 53 | 1020.3 |
| 20260506131541 | 49 | 320 | 0.0 | 0.0 | 0.00 | 0.00 | 0.00 | 53 | 1019.9 |
| 20260506130040 | 49 | 320 | 0.0 | 0.0 | 0.00 | 0.00 | 0.00 | 52 | 1019.8 |
| 20260506124538 | 50 | 320 | 0.0 | 0.0 | 0.00 | 0.00 | 0.00 | 52 | 1019.7 |
| 20260506123038 | 50 | 320 | 0.0 | 0.0 | 0.00 | 0.00 | 0.00 | 52 | 1019.8 |
| 20260506121537 | 49 | 321 | 0.0 | 0.0 | 0.00 | 0.00 | 0.00 | 52 | 1019.6 |
| 20260506120040 | 49 | 321 | 0.0 | 0.0 | 0.00 | 0.00 | 0.00 | 51 | 1019.6 |
| 20260506114541 | 49 | 321 | 0.0 | 0.0 | 0.00 | 0.00 | 0.00 | 50 | 1019.5 |
| 20260506113031 | 50 | 321 | 0.0 | 0.0 | 0.00 | 0.00 | 0.00 | 49 | 1019.4 |
| 20260506111532 | 50 | 321 | 0.0 | 0.0 | 0.00 | 0.00 | 0.00 | 48 | 1019.2 |
| 20260506110034 | 50 | 321 | 0.0 | 0.0 | 0.00 | 0.00 | 0.00 | 48 | 1019.2 |
| 20260506104528 | 51 | 321 | 0.0 | 0.0 | 0.00 | 0.00 | 0.00 | 48 | 1019.1 |
| 20260506103026 | 51 | 321 | 0.0 | 0.0 | 0.00 | 0.00 | 0.00 | 48 | 1019.1 |
| 20260506101544 | 51 | 321 | 0.0 | 0.0 | 0.00 | 0.00 | 0.00 | 48 | 1019.0 |
| 20260506100024 | 50 | 321 | 0.0 | 0.0 | 0.00 | 0.00 | 0.00 | 46 | 1018.9 |
| 20260506094522 | 51 | 321 | 0.0 | 0.0 | 0.00 | 0.00 | 0.00 | 45 | 1018.8 |
| 20260506093020 | 51 | 321 | 0.0 | 0.0 | 0.00 | 0.00 | 0.00 | 45 | 1018.8 |
| 20260506091521 | 51 | 321 | 0.0 | 0.0 | 0.00 | 0.00 | 0.00 | 44 | 1018.7 |
| 20260506090016 | 52 | 321 | 0.0 | 0.0 | 0.00 | 0.00 | 0.00 | 44 | 1019.0 |
| 20260506084519 | 52 | 321 | 0.0 | 2.6 | 0.00 | 0.00 | 0.00 | 44 | 1019.1 |
| 20260506083013 | 52 | 321 | 0.0 | 2.6 | 0.00 | 0.00 | 0.00 | 44 | 1019.1 |
| 20260506081512 | 52 | 323 | 0.0 | 0.0 | 0.00 | 0.00 | 0.00 | 43 | 1019.1 |
| 20260506073006 | 52 | 324 | 0.0 | 0.0 | 0.00 | 0.00 | 0.00 | 42 | 1018.7 |
| 20260506071503 | 53 | 324 | 0.0 | 0.0 | 0.00 | 0.00 | 0.00 | 42 | 1018.5 |
| 20260506061558 | 54 | 324 | 0.0 | 0.0 | 0.00 | 0.00 | 0.00 | 41 | 1017.8 |
| 20260506044559 | 56 | 324 | 0.0 | 0.0 | 0.00 | 0.00 | 0.00 | 40 | 1017.3 |
| 20260506043050 | 57 | 324 | 0.0 | 0.0 | 0.00 | 0.00 | 0.00 | 40 | 1017.2 |
| 20260506041603 | 57 | 324 | 0.0 | 0.0 | 0.00 | 0.00 | 0.00 | 40 | 1016.9 |
| 20260506040048 | 58 | 324 | 0.0 | 0.0 | 0.00 | 0.00 | 0.00 | 41 | 1016.7 |
| 20260506034547 | 58 | 324 | 0.0 | 0.0 | 0.00 | 0.00 | 0.00 | 41 | 1016.6 |
| 20260506033046 | 59 | 324 | 0.0 | 0.0 | 0.00 | 0.00 | 0.00 | 43 | 1016.2 |
| 20260506031547 | 60 | 324 | 0.0 | 1.7 | 0.00 | 0.00 | 0.00 | 43 | 1016.1 |
| 20260506030044 | 62 | 324 | 0.0 | 2.6 | 0.00 | 0.00 | 0.00 | 43 | 1015.8 |
| 20260506024544 | 63 | 325 | 0.9 | 1.7 | 0.00 | 0.00 | 0.00 | 43 | 1015.8 |
| 20260506023043 | 64 | 327 | 1.7 | 4.3 | 0.00 | 0.00 | 0.00 | 42 | 1015.6 |
| 20260506021544 | 66 | 311 | 0.9 | 3.5 | 0.00 | 0.00 | 0.00 | 40 | 1015.5 |
| 20260506020041 | 67 | 327 | 0.9 | 4.3 | 0.00 | 0.00 | 0.00 | 38 | 1015.4 |
| 20260506014548 | 67 | 325 | 1.7 | 4.3 | 0.00 | 0.00 | 0.00 | 38 | 1015.2 |
| 20260506013040 | 68 | 309 | 1.7 | 3.5 | 0.00 | 0.00 | 0.00 | 37 | 1015.2 |
| 20260506011541 | 68 | 270 | 1.7 | 6.1 | 0.00 | 0.00 | 0.00 | 37 | 1015.3 |
| 20260506010038 | 68 | 259 | 1.7 | 5.2 | 0.00 | 0.00 | 0.00 | 37 | 1015.3 |
| 20260506004542 | 66 | 298 | 2.6 | 7.8 | 0.00 | 0.00 | 0.00 | 38 | 1015.4 |
| 20260506003036 | 67 | 320 | 1.7 | 5.2 | 0.00 | 0.00 | 0.00 | 37 | 1015.3 |
| 20260506001542 | 69 | 275 | 0.9 | 7.0 | 0.00 | 0.00 | 0.00 | 35 | 1015.3 |
| 20260506000040 | 69 | 317 | 0.9 | 3.5 | 0.00 | 0.00 | 0.00 | 33 | 1015.3 |
| 20260505234531 | 69 | 234 | 3.5 | 7.8 | 0.00 | 0.00 | 0.00 | 34 | 1015.3 |
| 20260505233029 | 68 | 343 | 2.6 | 5.2 | 0.00 | 0.00 | 0.00 | 34 | 1015.3 |
| 20260505231529 | 68 | 305 | 1.7 | 7.0 | 0.00 | 0.00 | 0.00 | 34 | 1015.4 |
| 20260505230033 | 68 | 348 | 2.6 | 7.8 | 0.00 | 0.00 | 0.00 | 36 | 1015.4 |
| 20260505224536 | 69 | 318 | 3.5 | 7.0 | 0.00 | 0.00 | 0.00 | 34 | 1015.5 |
| 20260505223036 | 68 | 215 | 2.6 | 7.0 | 0.00 | 0.00 | 0.00 | 35 | 1015.6 |
| 20260505221523 | 67 | 307 | 3.5 | 8.7 | 0.00 | 0.00 | 0.00 | 34 | 1015.6 |
| 20260505220034 | 66 | 311 | 1.7 | 7.8 | 0.00 | 0.00 | 0.00 | 36 | 1015.7 |
| 20260505214536 | 65 | 306 | 4.3 | 7.8 | 0.00 | 0.00 | 0.00 | 36 | 1016.0 |
| 20260505213033 | 66 | 246 | 1.7 | 6.1 | 0.00 | 0.00 | 0.00 | 35 | 1016.0 |
| 20260505211519 | 67 | 242 | 3.5 | 8.7 | 0.00 | 0.00 | 0.00 | 34 | 1016.0 |
| 20260505210017 | 67 | 257 | 3.5 | 6.1 | 0.00 | 0.00 | 0.00 | 35 | 1016.0 |
| 20260505204524 | 66 | 255 | 3.5 | 7.0 | 0.00 | 0.00 | 0.00 | 35 | 1016.0 |
| 20260505203015 | 66 | 339 | 2.6 | 8.7 | 0.00 | 0.00 | 0.00 | 34 | 1015.9 |
| 20260505201517 | 66 | 338 | 3.5 | 8.7 | 0.00 | 0.00 | 0.00 | 34 | 1016.0 |
| 20260505200011 | 66 | 271 | 1.7 | 6.1 | 0.00 | 0.00 | 0.00 | 34 | 1016.0 |
| 20260505194510 | 66 | 327 | 2.6 | 5.2 | 0.00 | 0.00 | 0.00 | 34 | 1016.1 |
| 20260505193023 | 65 | 339 | 2.6 | 7.0 | 0.00 | 0.00 | 0.00 | 33 | 1016.3 |
| 20260505191503 | 64 | 286 | 2.6 | 9.6 | 0.00 | 0.00 | 0.00 | 32 | 1016.3 |
| 20260505190118 | 63 | 275 | 3.5 | 7.8 | 0.00 | 0.00 | 0.00 | 32 | 1016.4 |
| 20260505184608 | 62 | 269 | 0.0 | 7.8 | 0.00 | 0.00 | 0.00 | 32 | 1016.5 |
| 20260505183055 | 61 | 294 | 4.3 | 7.8 | 0.00 | 0.00 | 0.00 | 32 | 1016.5 |
| 20260505181551 | 61 | 279 | 2.6 | 8.7 | 0.00 | 0.00 | 0.00 | 33 | 1016.4 |
| 20260505180053 | 60 | 350 | 4.3 | 8.7 | 0.00 | 0.00 | 0.00 | 33 | 1016.4 |